HF6UWU Weather Reports


time (UTC)temp
C
wind
direction
speed
KPH
gust
KPH
rain 1hr
cm
rain 24hr
cm
rain mn
cm
humidity
%
barometer
mb
20260905113141 20 312 4.8 4.8 0.00 0.13 0.13 51 1005.7
20260905111115 19 287 8.0 9.7 0.00 0.13 0.13 54 1005.8
20260905110100 19 240 12.9 14.5 0.00 0.13 0.13 56 1005.8
20260905105051 19 280 6.4 6.4 0.00 0.13 0.13 61 1005.7
20260905103010 18 18 4.8 6.4 0.00 0.13 0.13 56 1005.7
20260905102000 19 306 12.9 12.9 0.00 0.13 0.13 59 1005.6
20260905100947 18 250 4.8 4.8 0.00 0.13 0.13 59 1005.7
20260905094910 18 293 6.4 6.4 0.00 0.13 0.13 59 1005.5
20260905093855 18 259 12.9 14.5 0.00 0.13 0.13 60 1005.4
20260905092846 18 250 16.1 17.7 0.00 0.13 0.13 60 1005.5
20260905090805 18 258 9.7 11.3 0.00 0.13 0.13 63 1005.6
20260905085755 17 234 8.0 8.0 0.00 0.13 0.13 67 1005.5
20260905084741 18 279 8.0 8.0 0.00 0.13 0.13 65 1005.5
20260905082705 17 243 3.2 3.2 0.00 0.13 0.13 70 1005.3
20260905081650 17 210 16.1 16.1 0.00 0.13 0.13 69 1005.3
20260905080641 17 274 8.0 9.7 0.00 0.13 0.13 71 1005.2
20260905074600 16 253 6.4 8.0 0.00 0.13 0.13 74 1005.1
20260905073550 16 288 8.0 9.7 0.00 0.13 0.13 75 1005.0
20260905072537 16 246 9.7 14.5 0.00 0.13 0.13 75 1004.8
20260905070500 16 263 11.3 16.1 0.00 0.13 0.13 78 1004.8
20260905065445 16 282 3.2 3.2 0.00 0.13 0.13 81 1004.8
20260905064437 16 311 16.1 17.7 0.00 0.13 0.13 80 1004.7
20260905062411 16 277 9.7 9.7 0.00 0.13 0.13 83 1004.6
20260905061355 15 267 4.8 6.4 0.00 0.13 0.13 85 1004.5
20260905060347 15 294 6.4 6.4 0.00 0.13 0.13 87 1004.5
20260905054305 15 250 8.0 8.0 0.00 0.13 0.13 88 1004.2
20260905053256 15 252 6.4 6.4 0.00 0.13 0.13 89 1004.2
20260905051230 14 237 6.4 6.4 0.00 0.13 0.13 89 1004.0
20260905050215 14 273 4.8 4.8 0.00 0.13 0.13 90 1003.8
20260905045207 14 283 3.2 3.2 0.00 0.13 0.13 90 1003.7
20260905043125 14 294 3.2 3.2 0.00 0.13 0.13 90 1003.4
20260905042115 15 316 4.8 4.8 0.00 0.13 0.13 90 1003.5
20260905041101 15 282 6.4 6.4 0.00 0.13 0.13 90 1003.4
20260905035025 15 284 9.7 11.3 0.00 0.13 0.13 89 1002.9
20260905034010 15 233 3.2 3.2 0.00 0.13 0.13 90 1003.0
20260905033001 15 252 6.4 6.4 0.00 0.13 0.13 90 1003.0
20260905030920 15 238 6.4 8.0 0.00 0.13 0.13 90 1002.5
20260905025910 15 264 6.4 8.0 0.00 0.13 0.13 90 1002.3
20260905024856 15 328 8.0 9.7 0.00 0.13 0.13 90 1002.1
20260905022820 15 240 8.0 8.0 0.00 0.13 0.13 91 1002.1
20260905021806 15 251 8.0 8.0 0.00 0.13 0.13 91 1001.9
20260905020757 15 285 4.8 4.8 0.00 0.13 0.13 92 1001.8
20260905014715 15 210 6.4 6.4 0.00 0.13 0.13 92 1001.3
20260905013705 15 295 4.8 4.8 0.00 0.13 0.13 92 1001.4
20260905012651 15 276 6.4 6.4 0.03 0.13 0.13 93 1001.5
20260905010615 15 226 3.2 3.2 0.03 0.13 0.13 94 1001.2
20260905005600 15 277 9.7 9.7 0.03 0.13 0.13 94 1001.3
20260905004552 15 250 3.2 3.2 0.03 0.13 0.13 93 1001.2
20260905002510 15 226 4.8 6.4 0.03 0.13 0.13 94 1001.3
20260905001500 15 228 4.8 4.8 0.00 0.10 0.10 93 1001.4
20260905000446 15 294 3.2 3.2 0.00 0.10 0.10 93 1001.3
20260904234410 15 318 4.8 4.8 0.03 0.10 0.10 93 1001.0
20260904233355 15 220 8.0 8.0 0.03 0.10 0.10 93 1000.9
20260904232346 15 227 6.4 6.4 0.08 0.10 0.10 93 1000.8
20260904230305 15 245 6.4 6.4 0.13 0.10 0.10 93 1000.7
20260904225255 15 263 8.0 9.7 0.18 0.10 0.10 93 1000.1
20260904224242 15 231 6.4 6.4 0.23 0.10 0.10 93 1000.0
20260904222205 15 238 9.7 9.7 0.36 0.08 0.08 94 1000.2
20260904221150 15 254 4.8 6.4 0.36 0.03 0.03 93 1000.1
20260904220141 15 264 6.4 6.4 0.33 0.00 0.00 93 1000.0
20260904214100 15 266 6.4 6.4 0.30 0.51 0.51 92 999.7
20260904213050 15 160 8.0 8.0 0.36 0.48 0.48 93 999.8
20260904212037 15 279 9.7 9.7 0.28 0.41 0.41 92 999.8
20260904210010 15 252 8.0 9.7 0.15 0.28 0.28 90 999.4
20260904205000 16 233 4.8 4.8 0.15 0.25 0.25 89 999.5
20260904203947 16 216 3.2 3.2 0.18 0.25 0.25 89 999.1
20260904201920 16 238 8.0 8.0 0.15 0.15 0.15 84 1000.2
20260904200910 16 345 3.2 3.2 0.13 0.13 0.13 84 999.8
20260904195857 16 250 6.4 8.0 0.13 0.13 0.13 84 999.7
20260904193820 17 251 9.7 11.3 0.10 0.10 0.10 84 999.9
20260904192820 17 268 9.7 9.7 0.08 0.08 0.08 80 999.7
20260904191807 20 262 8.0 9.7 0.00 0.00 0.00 68 999.6
20260904185743 20 306 3.2 3.2 0.00 0.00 0.00 67 998.3
20260904184730 21 286 8.0 8.0 0.00 0.00 0.00 68 998.4
20260904183717 21 303 6.4 6.4 0.00 0.00 0.00 66 998.3
20260904181703 22 228 8.0 8.0 0.00 0.00 0.00 63 997.6
20260904180653 23 0 11.3 12.9 0.00 0.00 0.00 64 997.2
20260904175652 25 198 6.4 6.4 0.00 0.00 0.00 55 995.8
20260904173615 25 228 8.0 8.0 0.00 0.00 0.00 57 995.2
20260904172600 25 210 8.0 8.0 0.00 0.00 0.00 57 995.3
20260904171551 25 230 4.8 4.8 0.00 0.00 0.00 57 995.5
20260904165510 25 252 4.8 4.8 0.00 0.00 0.00 57 996.1
20260904164500 25 234 6.4 6.4 0.00 0.00 0.00 57 996.0
20260904163446 25 217 9.7 9.7 0.00 0.00 0.00 56 996.2
20260904161435 25 258 3.2 3.2 0.00 0.00 0.00 57 996.6
20260904160425 25 224 9.7 11.3 0.00 0.00 0.00 57 996.6
20260904160216 25 210 19.3 20.9 0.00 0.00 0.00 58 996.6
20260904155215 25 246 12.9 14.5 0.00 0.00 0.00 59 996.7
20260904154206 25 48 9.7 9.7 0.00 0.00 0.00 59 996.7
20260904152132 25 263 8.0 8.0 0.00 0.00 0.00 60 997.0
20260904151116 25 230 9.7 11.3 0.00 0.00 0.00 60 997.1
20260904145050 25 222 8.0 8.0 0.00 0.00 0.00 58 997.4
20260904144035 25 240 6.4 6.4 0.00 0.00 0.00 59 997.6
20260904143026 25 186 6.4 6.4 0.00 0.00 0.00 58 997.6
20260904140945 25 252 8.0 8.0 0.00 0.00 0.00 57 998.0
20260904135936 25 234 11.3 12.9 0.00 0.00 0.00 58 998.1
20260904134936 25 228 9.7 9.7 0.00 0.00 0.00 60 998.4
20260904132858 24 215 11.3 12.9 0.00 0.00 0.00 60 998.8
20260904131843 24 240 6.4 8.0 0.00 0.00 0.00 60 998.9
20260904130837 24 270 8.0 8.0 0.00 0.00 0.00 61 999.1
20260904124807 23 276 16.1 17.7 0.00 0.00 0.00 61 999.4
20260904123805 23 254 9.7 9.7 0.00 0.00 0.00 63 999.7
20260904122756 23 262 16.1 16.1 0.00 0.00 0.00 63 999.8
20260904120730 22 224 6.4 8.0 0.00 0.00 0.00 65 1000.1
20260904115730 22 228 6.4 6.4 0.00 0.00 0.00 66 1000.3
20260904114729 22 228 16.1 16.1 0.00 0.00 0.00 64 1000.5